Location: La Tine
(46.4708°N, 7.0525°E)
Time: 02:18:13
(UTC+00:00)

Cosmos 1125 Rocket - Pass Details

Date: 18 September 2020
Orbit: 758 x 779 km, 74.0° (Epoch: 29 October)

Event Time Altitude Azimuth Distance (km) Brightness Sun altitude
Rises 18:56:46 0° 170° (S) 3,242 6.5 -14.4°
Reaches altitude 10° 18:59:23 10° 159° (SSE) 2,322 5.6 -14.8°
Maximum altitude 19:03:54 30° 100° (E) 1,385 4.3 -15.5°
Drops below altitude 10° 19:08:27 10° 41° (NE) 2,341 5.8 -16.3°
Sets 19:11:06 0° 31° (NNE) 3,274 6.7 -16.7°
